Temp
59 60 60 60 59 59 59 59 59 59 59 60 60 60 60 60 59 53 51 65 65 70 72 76 73 72 68 64 69 66 51 48 55 59 64 72 70 81 81 78 81 83 80 84 83
60 60 60 59 59 59 59 59 59 59 59 59 60 59 59 59 51 48 64 69 70 71 70 69 70 70 61 62 64 59 50 54 64 69 65 70 68 74 76 74 74 79 86 87 84
59 59 59 59 59 59 58 58 59 59 59 59 59 59 59 58 48 56 72 70 70 70 68 71 73 69 59 61 61 59 56 65 68 71 71 72 71 75 74 70 75 76 80 82 84
58 58 59 59 59 58 58 58 58 59 59 59 59 59 60 51 44 63 72 71 71 73 66 66 64 59 55 58 65 56 63 68 69 72 71 70 75 71 73 75 81 82 81 81 81
58 58 58 58 58 58 57 58 58 58 58 58 58 59 53 43 44 65 69 67 69 69 63 62 61 60 54 57 63 60 62 66 69 70 71 73 69 70 72 78 82 83 82 79 78
57 57 57 57 57 57 57 57 57 57 57 58 58 59 51 38 59 62 63 63 64 62 63 63 62 63 57 57 61 61 62 66 68 66 68 68 69 71 74 79 79 80 79 78 77
57 57 57 57 57 57 57 56 56 56 57 59 59 58 50 45 60 60 59 55 59 61 59 64 67 64 61 54 61 60 55 61 62 62 63 70 64 66 75 78 77 77 78 78 76
57 56 56 56 57 57 57 57 56 57 59 60 59 56 44 59 59 56 58 56 59 59 61 65 65 60 57 58 60 54 52 50 62 64 66 67 56 68 74 75 74 75 77 75 75
57 56 56 56 56 56 56 56 57 59 61 60 51 48 42 62 58 62 59 57 62 63 63 72 62 56 56 49 44 49 47 48 55 65 65 64 58 68 73 74 72 73 72 74 77
56 56 55 55 56 56 55 56 57 57 59 60 58 45 52 56 64 67 68 64 58 59 59 58 53 47 45 44 39 42 45 49 49 59 63 62 61 67 71 71 70 71 73 74 76
56 55 55 55 55 55 52 49 50 48 50 48 51 51 55 63 67 63 66 62 61 55 46 51 43 41 48 51 52 50 47 46 53 60 60 59 59 63 68 68 70 71 72 73 75
55 55 55 55 55 54 48 47 50 52 41 55 55 55 61 61 53 58 64 53 51 43 48 43 42 50 53 52 50 48 45 44 52 58 56 55 55 61 64 66 65 67 69 70 72
54 54 55 55 54 50 47 52 57 52 39 48 56 56 57 59 52 53 59 54 48 43 43 40 46 55 52 49 48 46 45 46 46 53 56 53 51 55 62 64 67 69 70 68 68
54 54 54 54 51 46 49 58 54 52 31 44 53 59 61 59 52 64 63 56 48 43 45 43 50 50 48 47 49 41 52 52 50 46 39 53 39 52 59 61 64 64 68 66 66
54 54 54 53 44 44 55 52 54 49 19 48 50 66 60 54 57 59 65 56 46 47 45 41 44 44 45 48 52 45 53 50 50 46 40 44 38 50 56 56 61 66 69 66 72
54 54 54 50 44 49 52 51 49 30 18 41 50 48 47 52 54 57 57 61 55 46 47 46 54 50 48 54 53 55 49 47 47 41 31 43 41 46 52 57 61 63 63 67 66
54 53 51 52 48 50 50 45 29 21 43 39 41 45 43 45 48 49 47 46 39 34 35 44 45 53 55 46 50 47 37 28 27 27 32 46 41 48 53 56 59 60 62 65 67
52 51 49 52 48 50 46 36 24 33 37 47 45 43 39 43 44 45 43 38 47 43 38 33 31 45 53 48 43 41 39 29 25 27 32 48 38 47 59 65 67 66 64 64 64
50 43 44 50 52 49 40 26 24 36 44 42 42 37 38 43 41 40 38 39 43 45 35 34 36 52 53 55 50 42 36 43 35 37 32 38 48 57 62 63 64 63 64 62 62
41 41 45 53 52 45 34 33 36 46 48 46 33 38 33 36 35 35 37 43 41 47 46 41 33 47 52 52 51 46 49 35 31 27 26 35 39 43 51 57 64 61 59 61 59
41 41 51 53 51 39 26 32 41 50 48 42 38 36 37 35 35 34 38 43 45 44 45 39 34 38 46 41 38 40 38 39 37 34 29 29 35 50 53 57 57 59 64 60 56
38 37 52 52 35 30 27 39 46 46 48 45 43 40 38 38 35 37 37 41 48 45 37 41 33 29 36 45 49 44 40 39 30 32 34 33 38 59 57 57 59 64 67 61 58
38 39 49 48 26 27 34 40 44 43 43 43 41 43 42 37 31 37 40 47 48 44 38 39 31 25 29 37 42 38 42 42 38 35 33 32 37 59 57 60 60 60 59 58 58
39 33 38 37 36 31 32 35 39 47 44 44 41 43 38 37 41 36 37 45 47 46 50 44 31 29 22 32 36 34 40 42 37 29 34 39 43 52 57 53 59 60 59 56 59
37 31 35 28 32 34 33 39 35 38 44 45 39 39 38 34 35 32 38 40 45 47 42 37 29 32 34 37 38 37 37 39 38 38 33 40 39 47 51 55 57 63 62 59 59
33 33 36 36 37 37 35 33 36 39 39 36 36 39 39 34 37 34 37 35 34 39 41 38 31 33 33 38 38 35 39 40 41 43 42 42 41 53 57 57 60 59 61 60 61
37 39 36 34 36 37 35 39 37 39 41 43 42 39 36 39 44 43 43 42 40 36 38 37 34 32 29 39 36 31 36 40 42 45 44 37 45 54 52 55 57 55 60 62 63
MSLP
1021.12 1020.76 1020.39 1020.05 1019.80 1019.44 1019.00 1018.71 1018.31 1017.86 1017.47 1017.21 1016.94 1016.55 1016.17 1015.74 1015.06 1014.24 1013.43 1010.70 1010.18 1009.54 1009.30 1009.16 1009.32 1009.51 1009.76 1009.58 1010.07 1009.94 1010.79 1010.18 1008.75 1007.84 1006.64 1005.29 1004.17 1002.97 1003.14 1003.23 1002.92 1002.63 1001.74 1001.66 1002.12
1021.10 1020.72 1020.33 1019.98 1019.66 1019.34 1019.06 1018.66 1018.23 1017.79 1017.41 1017.00 1016.69 1016.37 1015.92 1015.45 1014.60 1013.30 1010.37 1009.79 1009.77 1009.66 1009.60 1009.22 1009.07 1009.40 1009.81 1009.74 1009.72 1009.74 1009.81 1008.56 1006.95 1006.62 1006.32 1005.57 1005.50 1004.62 1004.02 1003.35 1003.08 1003.13 1002.27 1002.23 1002.36
1021.16 1020.72 1020.29 1019.90 1019.51 1019.14 1018.83 1018.48 1018.11 1017.66 1017.10 1016.75 1016.43 1016.12 1015.78 1015.34 1014.15 1010.54 1009.07 1009.15 1009.63 1009.58 1009.53 1009.30 1008.83 1009.06 1009.41 1009.25 1009.29 1009.09 1008.22 1007.33 1006.05 1005.95 1006.23 1005.82 1005.13 1005.08 1004.65 1003.38 1003.23 1003.27 1002.86 1003.09 1002.85
1021.15 1020.71 1020.21 1019.78 1019.30 1018.89 1018.47 1018.05 1017.70 1017.32 1016.96 1016.59 1016.24 1016.00 1015.72 1015.40 1013.43 1009.41 1008.82 1009.06 1009.09 1008.47 1009.07 1009.14 1008.91 1008.93 1009.17 1008.86 1008.40 1008.18 1007.49 1007.04 1006.02 1006.01 1006.08 1005.67 1005.30 1005.03 1004.79 1003.63 1002.88 1003.37 1003.07 1002.97 1002.48
1021.18 1020.69 1020.16 1019.64 1019.11 1018.58 1018.10 1017.55 1017.11 1016.84 1016.59 1016.39 1016.22 1016.04 1015.62 1015.54 1013.15 1009.32 1009.46 1009.40 1008.90 1008.56 1008.88 1008.99 1008.56 1008.59 1008.40 1008.39 1008.16 1007.43 1007.14 1006.95 1006.60 1006.00 1005.68 1005.87 1004.90 1004.43 1003.92 1003.75 1003.16 1002.86 1002.61 1002.28 1002.51
1020.97 1020.38 1019.85 1019.35 1018.78 1018.20 1017.63 1017.07 1016.69 1016.40 1015.94 1015.70 1015.73 1015.74 1015.59 1014.90 1010.45 1010.11 1010.22 1009.73 1009.57 1009.38 1008.91 1008.83 1007.96 1008.07 1008.09 1007.99 1007.71 1006.77 1006.82 1006.72 1006.59 1005.93 1005.68 1005.55 1004.38 1003.94 1003.10 1003.00 1002.83 1002.49 1002.19 1002.11 1002.08
1020.90 1020.32 1019.70 1019.01 1018.17 1017.43 1016.73 1016.06 1015.67 1015.81 1015.19 1014.98 1015.14 1015.34 1015.02 1012.36 1010.51 1010.06 1010.36 1010.09 1009.83 1009.93 1009.44 1008.66 1008.06 1007.90 1007.51 1007.87 1007.44 1006.95 1007.08 1006.66 1006.06 1006.13 1005.48 1005.21 1003.54 1002.31 1002.79 1002.59 1002.08 1001.99 1001.83 1001.56 1001.27
1020.66 1020.10 1019.50 1018.89 1018.08 1017.09 1016.25 1015.42 1014.69 1014.67 1014.33 1014.28 1014.60 1014.81 1013.72 1010.51 1010.30 1010.17 1009.80 1009.06 1008.96 1009.09 1009.06 1008.19 1008.01 1007.96 1007.72 1007.54 1007.56 1007.42 1007.15 1006.55 1005.22 1005.63 1005.29 1005.60 1000.23 1001.82 1002.07 1002.23 1001.55 1001.37 1001.10 1000.94 1000.53
1020.71 1020.11 1019.42 1018.77 1018.11 1017.13 1016.11 1015.00 1014.08 1013.79 1013.62 1014.03 1014.51 1014.53 1012.29 1010.11 1009.77 1009.04 1009.15 1009.30 1008.52 1007.97 1007.85 1007.42 1007.58 1007.78 1007.86 1008.20 1008.46 1007.49 1006.41 1005.69 1005.72 1004.76 1004.95 1004.84 999.64 1001.86 1001.92 1001.97 1001.38 1001.11 1000.74 1000.38 1000.08
1020.57 1019.96 1019.27 1018.55 1017.79 1016.98 1015.98 1014.75 1013.81 1013.97 1013.85 1013.95 1013.92 1014.27 1011.37 1009.89 1008.78 1008.27 1008.08 1008.52 1008.41 1007.86 1007.58 1007.38 1007.54 1007.79 1008.07 1008.16 1006.94 1007.08 1006.61 1006.32 1005.61 1005.06 1004.66 1003.72 1000.92 1001.99 1001.95 1001.90 1001.26 1000.96 1000.46 1000.10 999.78
1020.27 1019.52 1018.76 1018.15 1017.46 1016.76 1015.91 1015.34 1015.07 1014.21 1014.03 1013.45 1012.73 1012.96 1010.92 1009.20 1008.52 1007.30 1007.63 1007.83 1007.62 1007.62 1007.56 1007.43 1007.78 1006.91 1006.30 1006.91 1007.27 1007.07 1007.01 1006.84 1005.99 1005.15 1004.68 1003.48 1001.64 1001.79 1001.87 1001.59 1001.03 1000.38 1000.03 999.63 999.19
1020.03 1019.23 1018.44 1017.73 1017.02 1016.50 1016.41 1016.30 1015.75 1015.77 1014.53 1012.14 1011.43 1011.10 1009.52 1009.11 1008.61 1007.19 1007.06 1008.01 1007.91 1007.98 1007.91 1007.97 1006.51 1007.05 1007.18 1007.30 1007.50 1007.48 1007.49 1007.15 1006.57 1005.71 1005.11 1004.03 1002.49 1001.92 1001.69 1000.97 1000.37 999.76 999.34 999.18 999.08
1019.78 1019.13 1018.31 1017.31 1016.54 1016.43 1016.48 1015.64 1015.03 1015.14 1015.12 1012.18 1010.54 1009.69 1008.59 1008.76 1008.30 1007.45 1007.53 1007.69 1008.14 1008.39 1008.17 1008.06 1007.10 1007.13 1007.27 1007.26 1007.31 1007.33 1007.40 1007.31 1007.09 1006.43 1005.47 1005.01 1002.48 1001.76 1000.71 1000.29 999.70 998.90 998.57 998.56 998.68
1019.40 1018.79 1018.22 1017.19 1016.45 1016.87 1016.02 1014.98 1014.95 1015.18 1015.00 1012.49 1010.36 1008.78 1008.40 1008.31 1007.90 1006.81 1007.18 1007.59 1008.26 1008.23 1007.95 1007.93 1007.22 1006.92 1006.83 1006.68 1007.31 1007.12 1007.39 1007.28 1007.17 1007.20 1006.49 1005.75 1002.51 1001.75 1000.02 999.39 999.07 998.86 997.96 997.97 997.98
1019.23 1018.58 1018.05 1017.82 1017.46 1016.94 1015.43 1015.01 1014.76 1015.06 1014.70 1012.45 1010.77 1009.53 1009.47 1008.95 1007.98 1006.80 1006.47 1007.16 1007.69 1007.77 1008.00 1007.44 1007.08 1006.85 1006.65 1006.54 1006.66 1006.75 1007.00 1007.13 1007.38 1007.40 1007.15 1006.29 1005.46 997.82 999.12 998.24 997.65 997.68 997.51 997.49 996.96
1018.90 1018.30 1017.91 1017.54 1017.54 1015.87 1015.42 1015.13 1015.05 1015.85 1014.73 1013.04 1011.91 1010.84 1010.27 1009.17 1008.27 1007.65 1007.04 1006.83 1007.51 1007.52 1007.37 1007.15 1006.74 1006.54 1006.33 1006.27 1006.35 1006.57 1006.76 1007.02 1007.50 1007.74 1007.10 1006.04 1005.76 997.57 998.21 997.07 996.55 996.69 996.83 996.55 996.47
1018.08 1017.57 1017.44 1017.07 1016.23 1015.41 1015.36 1015.76 1016.28 1015.94 1015.13 1013.97 1012.72 1011.67 1010.96 1009.95 1009.19 1008.73 1007.95 1007.55 1007.84 1007.84 1007.52 1007.13 1006.38 1005.72 1005.81 1006.11 1006.13 1006.61 1007.23 1007.71 1008.23 1007.89 1005.92 1004.92 1004.74 997.89 997.25 996.62 996.54 996.40 996.25 996.19 996.00
1017.44 1016.63 1016.38 1015.92 1015.32 1015.54 1015.95 1016.47 1016.78 1016.46 1015.33 1014.46 1013.55 1012.29 1011.58 1011.00 1010.00 1009.46 1008.96 1008.48 1008.19 1008.26 1008.17 1007.97 1006.46 1005.54 1005.29 1005.46 1005.67 1006.30 1007.09 1007.20 1007.21 1006.97 1005.87 1004.67 1001.51 998.24 996.69 995.68 995.22 995.47 995.70 995.75 995.75
1016.77 1016.63 1016.51 1015.21 1015.26 1015.72 1016.66 1017.32 1017.27 1016.17 1015.16 1014.18 1013.57 1012.88 1012.24 1011.76 1011.38 1010.51 1009.93 1009.39 1009.05 1008.88 1008.89 1008.26 1006.80 1005.37 1005.12 1004.90 1005.29 1005.85 1006.49 1006.62 1007.13 1006.73 1006.19 1003.28 999.85 997.84 996.39 995.86 995.12 995.23 995.51 995.63 995.44
1017.95 1017.44 1016.32 1015.25 1015.19 1016.21 1017.33 1017.63 1016.78 1015.68 1014.78 1014.12 1013.91 1013.45 1012.93 1012.44 1012.07 1011.23 1010.48 1009.74 1009.57 1009.31 1009.38 1008.65 1007.95 1006.48 1005.60 1005.08 1005.17 1005.29 1005.76 1006.70 1007.25 1006.88 1005.69 1002.45 1000.36 997.23 996.17 996.19 995.15 995.41 995.72 995.62 995.55
1018.16 1017.55 1016.04 1015.45 1015.61 1017.08 1018.03 1017.68 1016.30 1015.04 1014.53 1014.19 1013.77 1013.68 1013.41 1013.02 1012.58 1011.97 1011.10 1010.28 1009.93 1009.69 1009.62 1009.27 1008.96 1007.95 1006.81 1006.07 1005.88 1006.01 1005.86 1006.28 1006.47 1006.37 1005.01 1002.77 998.93 996.83 996.70 996.03 996.16 995.76 995.38 995.19 995.29
1019.13 1018.26 1016.21 1015.73 1017.08 1018.29 1018.42 1017.61 1016.27 1014.92 1014.40 1013.88 1013.60 1013.66 1013.45 1013.20 1012.69 1012.09 1011.34 1010.64 1010.02 1010.16 1010.00 1009.69 1009.47 1008.79 1007.72 1006.55 1006.28 1006.68 1006.45 1006.53 1006.73 1006.22 1004.80 1003.34 998.62 996.41 996.42 996.55 996.50 995.76 995.28 994.62 994.91
1020.11 1019.04 1016.62 1016.35 1018.52 1019.19 1018.44 1017.45 1016.48 1015.54 1014.81 1014.35 1014.08 1013.61 1013.57 1013.44 1013.15 1011.92 1011.04 1010.25 1010.16 1010.33 1010.07 1010.07 1009.97 1009.68 1008.40 1007.52 1006.90 1006.89 1006.44 1006.48 1006.58 1006.44 1004.68 1003.70 998.89 996.68 996.85 996.88 996.66 996.16 995.35 995.45 995.81
1020.44 1019.96 1018.85 1018.89 1019.29 1019.60 1019.10 1017.64 1016.38 1015.53 1015.09 1014.76 1014.22 1013.61 1013.66 1013.29 1012.66 1011.99 1011.23 1010.50 1010.04 1010.04 1009.95 1010.23 1010.18 1009.95 1009.20 1008.48 1008.10 1007.49 1006.96 1006.71 1006.56 1006.12 1004.57 1001.91 1000.14 999.95 997.82 997.61 996.71 996.20 995.93 996.05 996.29
1021.11 1021.34 1020.94 1020.45 1019.98 1019.92 1019.36 1017.86 1016.81 1015.77 1015.23 1014.58 1014.24 1013.97 1013.81 1012.91 1012.19 1011.62 1010.89 1010.54 1010.10 1009.79 1009.74 1010.14 1010.06 1009.81 1009.12 1008.63 1007.99 1007.46 1007.03 1006.45 1006.10 1005.24 1004.25 1002.05 1000.85 1000.69 999.31 998.33 997.22 996.27 995.45 995.77 996.18
1022.01 1022.08 1021.29 1020.90 1020.10 1019.62 1018.84 1017.89 1017.03 1016.01 1015.64 1014.74 1014.36 1013.78 1013.41 1012.82 1012.21 1011.12 1011.09 1010.79 1010.49 1009.86 1009.71 1010.14 1009.89 1009.59 1008.82 1008.10 1007.46 1006.82 1006.15 1005.59 1004.89 1004.17 1002.99 1002.41 1000.75 1000.39 999.13 998.22 997.14 996.39 995.12 995.31 995.70
1022.23 1021.95 1021.74 1020.57 1019.68 1019.16 1018.53 1017.61 1017.10 1016.42 1015.21 1014.78 1014.32 1013.52 1012.65 1011.67 1011.36 1010.78 1010.30 1009.71 1010.11 1010.02 1010.01 1010.08 1009.99 1009.44 1007.93 1007.20 1006.79 1005.58 1003.75 1003.78 1003.30 1002.78 1002.16 1001.96 1001.33 1000.03 999.07 997.85 997.02 996.56 995.63 995.48 995.33
Wind_Speed
14 15 15 15 15 16 17 18 18 18 19 18 18 18 19 20 22 3 9 13 11 15 7 2 2 4 1 2 4 5 2 6 7 8 5 5 10 3 3 2 7 8 5 6 9
15 15 16 17 17 17 17 18 19 19 18 18 18 18 20 21 7 10 18 16 14 13 4 7 8 6 4 5 5 5 6 10 8 10 4 5 2 14 7 4 4 9 7 7 4
16 17 17 18 19 19 18 18 18 18 19 19 18 18 18 17 6 8 2 3 11 14 13 7 8 5 6 4 7 7 11 17 12 10 6 8 7 4 11 11 8 6 13 6 10
18 18 19 19 20 20 20 20 19 19 18 18 18 16 16 4 7 3 4 22 18 11 10 8 4 6 7 12 7 6 11 15 13 10 3 13 8 11 13 16 10 13 9 8 11
19 19 19 20 20 20 21 21 21 20 20 18 15 12 4 4 14 9 23 19 12 6 6 14 14 6 10 6 5 16 8 6 11 13 12 11 19 18 17 15 18 16 10 10 11
19 21 22 22 22 23 22 21 21 20 20 18 13 8 4 7 8 6 8 9 6 6 6 10 7 7 4 7 15 2 6 18 14 14 8 12 20 16 16 15 15 15 15 11 11
20 22 24 25 26 25 24 23 21 18 19 16 10 5 7 24 5 4 9 7 5 7 5 4 12 7 7 1 6 5 9 10 11 5 8 4 24 28 21 19 19 15 13 12 11
21 22 25 25 26 26 26 26 26 21 14 6 5 4 10 5 6 10 8 9 9 11 9 11 7 5 5 2 4 4 5 16 14 14 6 8 35 7 8 14 22 17 14 9 12
21 21 24 25 25 25 26 26 27 16 1 9 5 3 13 9 5 8 9 7 6 6 7 8 4 5 2 4 3 5 15 15 11 6 8 17 31 12 10 11 16 13 11 12 15
21 20 22 24 24 24 23 23 21 7 6 7 4 2 7 11 15 11 17 5 6 5 3 6 4 5 3 7 18 11 15 4 4 4 10 18 31 19 14 11 17 16 16 16 17
22 22 22 22 24 22 10 6 9 7 3 5 15 10 22 12 15 14 2 8 7 3 6 5 4 16 19 14 10 7 4 2 2 8 13 19 26 21 16 18 22 22 20 20 21
22 23 25 23 24 17 3 2 3 7 9 13 10 9 18 9 7 11 5 4 3 4 3 0 19 7 4 4 11 10 9 8 6 11 4 10 19 14 11 14 12 15 17 15 13
22 23 24 24 24 2 2 5 3 3 2 11 6 7 11 4 5 9 5 3 4 5 4 6 8 11 11 5 9 7 11 10 7 9 16 13 21 15 13 12 14 18 16 10 11
22 22 21 25 4 4 6 5 7 2 2 6 7 5 8 5 4 4 7 5 2 6 5 7 8 11 7 15 15 15 4 8 5 5 10 5 21 20 19 22 16 10 17 10 12
23 23 20 13 4 4 7 7 7 4 3 11 7 9 21 5 12 8 4 4 8 10 4 7 4 2 9 8 7 8 12 9 12 10 3 6 6 23 12 18 20 22 19 13 19
23 22 19 1 1 9 8 8 4 7 4 7 8 13 15 10 11 8 5 2 1 5 8 8 7 6 7 7 5 4 4 9 10 3 5 10 9 30 13 19 19 14 10 16 11
27 25 12 3 5 3 4 5 5 5 5 6 15 14 14 7 11 6 10 6 3 1 5 6 13 19 9 5 5 4 3 1 1 4 13 13 12 27 8 2 6 8 10 11 11
27 20 4 5 3 4 4 6 6 4 5 9 13 14 5 7 12 9 7 6 2 0 3 3 3 8 10 12 8 7 10 6 7 5 5 14 16 13 16 21 17 11 10 9 10
20 4 2 4 3 3 6 6 6 3 8 13 9 4 4 7 4 7 5 3 6 5 1 4 4 1 1 2 7 3 5 7 3 3 2 6 16 18 20 15 16 9 8 11 11
3 4 4 3 5 5 6 3 3 5 11 8 4 4 5 6 6 5 4 2 4 2 1 3 3 4 5 3 5 6 5 4 1 5 5 7 9 13 4 11 18 11 8 10 6
4 4 4 3 5 6 3 5 7 8 7 5 3 5 5 5 3 4 5 5 2 6 3 3 2 4 2 2 2 1 2 2 4 5 5 4 8 8 12 8 6 11 14 10 10
3 3 4 3 5 0 0 6 11 8 7 6 3 3 3 6 4 4 4 4 2 1 5 3 2 4 7 7 10 4 4 3 3 8 6 2 11 9 9 7 8 15 16 10 9
3 3 4 6 3 4 6 5 4 11 11 5 6 3 2 4 5 5 5 4 4 2 4 2 3 2 7 3 3 3 4 6 3 2 9 7 10 7 7 14 11 14 7 3 7
3 5 5 5 1 1 5 4 10 11 10 10 7 5 5 10 7 8 9 7 2 5 11 2 4 5 6 0 2 5 4 4 3 4 6 21 19 19 21 15 19 16 5 4 7
4 2 1 5 4 7 4 6 8 10 5 5 5 5 14 7 10 5 5 5 6 11 8 8 5 4 8 12 13 14 13 15 13 7 7 10 13 13 13 15 15 18 10 10 11
3 4 4 6 5 5 4 3 10 12 4 7 6 16 15 10 13 22 17 6 7 7 2 1 4 2 11 12 15 17 16 17 19 15 15 16 22 18 14 9 14 15 12 14 14
3 3 1 6 4 2 4 7 13 16 6 7 14 17 15 16 12 18 17 18 14 6 4 3 2 2 7 9 11 15 23 20 20 15 9 15 11 10 13 14 11 9 2 9 14
Wind_Direction
351 347 341 337 332 328 327 325 325 325 324 324 326 330 331 326 317 300 247 229 199 246 291 271 152 176 61 209 221 139 115 225 228 166 229 331 353 268 356 7 340 318 150 216 148
349 344 338 334 330 327 324 321 321 320 319 320 324 327 331 327 295 233 240 236 259 279 273 222 224 161 169 209 212 170 180 224 214 212 194 298 321 295 326 14 308 308 7 345 148
347 342 337 333 328 325 323 320 318 316 316 317 321 327 331 327 312 250 46 100 256 260 246 284 247 195 201 180 197 205 215 228 246 230 252 261 280 255 295 297 219 257 300 228 261
346 341 336 333 328 325 322 319 314 311 310 312 318 324 330 321 288 305 314 341 333 303 209 210 229 182 194 208 191 250 219 230 258 247 251 254 273 249 254 258 290 270 257 264 289
343 338 333 329 327 324 321 315 311 310 308 307 305 313 358 20 253 283 320 325 327 18 205 211 202 185 192 204 191 246 239 243 248 255 251 269 264 260 252 262 277 276 270 267 262
337 334 331 330 326 323 318 311 307 306 303 299 299 299 286 281 247 275 305 329 351 351 341 210 210 204 215 201 205 139 223 244 255 266 252 259 267 263 261 262 261 266 266 250 246
336 332 331 330 328 324 319 312 304 304 296 292 287 271 261 247 251 279 318 275 244 263 283 273 255 223 155 328 251 259 290 280 237 207 242 358 268 253 250 265 267 262 256 259 248
337 333 332 332 329 323 318 314 311 315 305 280 204 222 252 270 264 292 277 286 226 225 218 252 264 256 180 312 327 222 186 243 261 227 222 164 259 236 227 237 256 262 262 256 260
337 333 331 330 327 320 315 311 312 327 301 136 121 168 269 292 267 244 185 277 286 214 207 239 154 189 122 157 347 236 238 230 263 211 207 204 262 259 260 253 261 269 264 274 279
335 333 329 330 329 324 316 311 299 314 127 158 151 296 285 311 301 291 303 274 269 278 209 194 171 159 164 162 211 222 231 277 209 227 209 229 253 252 250 267 271 270 271 269 274
337 335 331 332 330 328 334 6 9 338 55 214 265 257 268 267 287 288 339 326 280 213 188 194 157 211 206 217 265 317 345 274 336 219 217 231 255 257 255 253 255 258 262 264 265
336 336 333 329 328 333 96 40 267 250 313 284 253 240 253 258 299 289 150 166 341 312 335 287 229 212 160 193 235 259 268 272 276 269 276 277 277 284 271 253 242 245 250 251 266
333 332 332 330 324 41 294 244 332 31 284 291 260 256 269 138 259 282 156 150 217 258 238 222 259 216 230 228 242 229 231 251 246 308 298 308 285 282 256 244 250 256 256 254 239
330 330 334 333 34 319 287 289 333 139 21 288 338 294 338 274 268 293 195 135 256 241 220 220 241 258 270 234 239 256 220 257 253 205 257 188 287 273 269 263 251 244 255 250 246
328 329 329 328 268 331 266 347 318 63 17 325 307 318 331 335 303 346 287 124 241 222 184 244 281 252 232 231 210 244 233 238 225 244 235 248 293 272 226 256 248 239 247 247 249
326 325 326 145 312 240 337 309 56 50 291 330 329 320 335 313 325 324 313 114 251 280 221 232 255 235 218 250 234 237 218 229 233 150 250 218 201 278 244 242 246 237 216 236 242
325 323 313 188 233 50 350 31 39 91 326 330 321 320 311 317 327 349 314 282 209 102 31 327 230 235 220 231 259 167 85 312 168 187 231 207 197 237 272 305 235 243 248 250 258
323 317 213 219 260 30 45 48 60 248 284 300 325 307 317 11 318 328 321 339 275 115 12 307 278 185 208 200 197 181 165 183 184 179 224 248 230 239 231 256 259 263 246 253 258
327 343 290 270 184 90 61 42 204 288 316 322 316 302 323 328 289 346 321 332 24 8 251 243 259 261 86 177 141 202 169 193 15 224 242 242 260 278 275 278 278 285 282 263 255
354 343 285 338 112 62 69 271 243 283 300 312 269 256 316 314 336 350 303 346 359 26 6 286 297 325 358 16 224 160 196 88 6 217 236 254 254 237 283 250 272 278 276 273 238
25 26 298 29 60 50 124 237 282 294 345 308 264 281 291 309 283 281 289 312 328 321 323 286 145 291 339 245 213 348 184 206 169 178 221 296 259 194 202 237 282 295 298 258 202
1 43 306 54 38 35 85 299 303 318 342 284 239 264 276 285 281 256 257 253 204 318 321 297 229 231 227 260 279 249 287 136 168 233 249 246 261 307 282 335 319 308 316 301 156
356 285 313 79 62 318 299 294 293 345 331 313 294 277 319 281 306 265 242 255 276 243 245 316 270 309 322 12 40 223 244 191 185 274 241 239 249 336 3 341 330 313 318 129 134
20 356 328 41 137 156 311 279 337 339 289 329 276 293 346 298 263 269 272 279 263 223 253 175 225 220 193 353 17 275 307 266 209 187 267 244 277 289 301 330 318 314 290 164 142
25 311 233 315 333 323 271 269 329 344 271 294 281 321 316 290 302 257 233 278 261 271 266 171 239 214 254 261 266 265 263 263 245 231 221 285 293 289 305 298 299 299 248 164 158
48 12 344 282 268 293 299 299 314 318 289 295 265 308 310 269 270 287 278 241 249 302 201 170 265 251 284 256 249 255 247 249 251 247 255 263 274 273 270 286 307 313 177 169 162
318 311 276 271 280 284 289 319 309 304 279 274 303 305 299 291 298 286 268 266 246 239 269 200 242 265 249 278 287 266 229 225 236 230 221 249 259 289 300 293 297 322 307 186 164